,,,PA_Meas_PMT16A,,PR_Meas_QMR101_102,,RH_Meas_QMH101,,SR_Meas_QMS101,,TA_Meas_QMH101,,GenWind,,GenWind,
date,time,status,PA,status,PR,status,RH,status,SR,status,TA,status,DirAvg,status,SpdAvg,
2008-05-12, 00:00:04,VALID,1003.85,VALID,0,VALID,89.7843,VALID,0,VALID,25.6915,VALID,79,VALID,0.637891,
2008-05-12, 00:01:04,VALID,1003.83,VALID,0,VALID,89.7767,VALID,0,VALID,25.672,VALID,82,VALID,0.688672,
2008-05-12, 00:02:04,VALID,1003.84,VALID,0,VALID,89.8758,VALID,0,VALID,25.633,VALID,91,VALID,0.249219,
2008-05-12, 00:03:04,VALID,1003.85,VALID,0,VALID,89.9292,VALID,0,VALID,25.633,VALID,87,VALID,0.560156,
2008-05-12, 00:04:04,VALID,1003.84,VALID,0,VALID,90.0513,VALID,0,VALID,25.5941,VALID,89,VALID,0.314844,
2008-05-12, 00:05:04,VALID,1003.84,VALID,0,VALID,90.1581,VALID,0,VALID,25.5551,VALID,116,VALID,0.727344,
2008-05-12, 00:06:04,VALID,1003.83,VALID,0,VALID,90.2344,VALID,0,VALID,25.5357,VALID,124,VALID,0.590234,
2008-05-12, 00:07:04,VALID,1003.85,VALID,0,VALID,90.242,VALID,0,VALID,25.5162,VALID,120,VALID,0.718359,
2008-05-12, 00:08:04,VALID,1003.85,VALID,0,VALID,90.2649,VALID,0,VALID,25.5162,VALID,120,VALID,0.276172,
2008-05-12, 00:09:04,VALID,1003.83,VALID,0,VALID,90.2725,VALID,0,VALID,25.4772,VALID,119,VALID,0.191016,
2008-05-12, 00:10:04,VALID,1003.83,VALID,0,VALID,90.3565,VALID,0,VALID,25.4383,VALID,119,VALID,0.273828,
2008-05-12, 00:11:04,VALID,1003.84,VALID,0,VALID,90.3565,VALID,0,VALID,25.4188,VALID,79,VALID,0.507813,
2008-05-12, 00:12:04,VALID,1003.84,VALID,0,VALID,90.4556,VALID,0,VALID,25.3798,VALID,79,VALID,0.357422,
2008-05-12, 00:13:04,VALID,1003.78,VALID,0,VALID,90.5548,VALID,0,VALID,25.3409,VALID,61,VALID,0.442187,
2008-05-12, 00:14:04,VALID,1003.81,VALID,0,VALID,90.6158,VALID,0,VALID,25.3019,VALID,87,VALID,0.448828,
2008-05-12, 00:15:04,VALID,1003.78,VALID,0,VALID,90.6006,VALID,0,VALID,25.3214,VALID,88,VALID,0.493359,
2008-05-12, 00:16:04,VALID,1003.78,VALID,0,VALID,90.5472,VALID,0,VALID,25.3428,VALID,87,VALID,0.480859,
2008-05-12, 00:17:04,VALID,1003.79,VALID,0,VALID,90.5396,VALID,0,VALID,25.3428,VALID,89,VALID,0.348828,
2008-05-12, 00:18:04,VALID,1003.78,VALID,0,VALID,90.5396,VALID,0,VALID,25.2806,VALID,87,VALID,0.36875,
2008-05-12, 00:19:04,VALID,1003.79,VALID,0,VALID,90.5396,VALID,0,VALID,25.2825,VALID,84,VALID,0,
2008-05-12, 00:20:04,VALID,1003.79,VALID,0,VALID,90.5853,VALID,0,VALID,25.263,VALID,84,VALID,0.238281,
2008-05-12, 00:21:04,VALID,1003.79,VALID,0,VALID,90.6616,VALID,0,VALID,25.2435,VALID,84,VALID,0.0558594,
2008-05-12, 00:22:04,VALID,1003.8,VALID,0,VALID,90.7379,VALID,0,VALID,25.2046,VALID,84,VALID,0.230078,
2008-05-12, 00:23:04,VALID,1003.78,VALID,0,VALID,90.8447,VALID,0,VALID,25.1656,VALID,84,VALID,0.046875,
2008-05-12, 00:24:04,VALID,1003.8,VALID,0,VALID,90.9439,VALID,0,VALID,25.1248,VALID,84,VALID,0.0394531,
2008-05-12, 00:25:04,VALID,1003.77,VALID,0,VALID,91.0659,VALID,0,VALID,25.1072,VALID,84,VALID,0.0359375,
2008-05-12, 00:26:04,VALID,1003.77,VALID,0,VALID,91.2033,VALID,0,VALID,25.0682,VALID,84,VALID,0.230469,
2008-05-12, 00:27:04,VALID,1003.74,VALID,0,VALID,91.2719,VALID,0,VALID,25.0312,VALID,84,VALID,0.321875,
2008-05-12, 00:28:04,VALID,1003.75,VALID,0,VALID,91.5008,VALID,0,VALID,24.9514,VALID,84,VALID,0.162891,
2008-05-12, 00:29:04,VALID,1003.73,VALID,0,VALID,91.8288,VALID,0,VALID,24.9125,VALID,84,VALID,0.268359,
2008-05-12, 00:30:04,VALID,1003.68,VALID,0,VALID,91.9204,VALID,0,VALID,24.8735,VALID,83,VALID,0.141406,
2008-05-12, 00:31:04,VALID,1003.67,VALID,0,VALID,92.4468,VALID,0,VALID,24.8735,VALID,15,VALID,1.02227,
2008-05-12, 00:32:04,VALID,1003.66,VALID,0,VALID,92.3552,VALID,0,VALID,24.9338,VALID,29,VALID,0.442187,
2008-05-12, 00:33:04,VALID,1003.62,VALID,0,VALID,92.134,VALID,0,VALID,24.893,VALID,31,VALID,0.0910156,
2008-05-12, 00:34:04,VALID,1003.61,VALID,0,VALID,92.0882,VALID,0,VALID,24.854,VALID,31,VALID,0.075,
2008-05-12, 00:35:04,VALID,1003.6,VALID,0,VALID,92.195,VALID,0,VALID,24.8346,VALID,31,VALID,0.220703,
2008-05-12, 00:36:04,VALID,1003.56,VALID,0,VALID,92.3781,VALID,0,VALID,24.8151,VALID,31,VALID,0.228516,
2008-05-12, 00:37:04,VALID,1003.6,VALID,0,VALID,92.5383,VALID,0,VALID,24.8346,VALID,31,VALID,0.237109,
2008-05-12, 00:38:04,VALID,1003.54,VALID,0,VALID,92.5154,VALID,0,VALID,24.8364,VALID,31,VALID,0.00195313,
2008-05-12, 00:39:04,VALID,1003.53,VALID,0,VALID,92.8358,VALID,0,VALID,24.8151,VALID,48,VALID,0.326172,
2008-05-12, 00:40:04,VALID,1003.51,VALID,0,VALID,92.874,VALID,0,VALID,24.854,VALID,67,VALID,0.302344,
2008-05-12, 00:41:04,VALID,1003.49,VALID,0,VALID,92.8358,VALID,0,VALID,24.8735,VALID,67,VALID,0.100781,
2008-05-12, 00:42:04,VALID,1003.47,VALID,0,VALID,93.08,VALID,0,VALID,24.9125,VALID,62,VALID,0.596484,
2008-05-12, 00:43:04,VALID,1003.42,VALID,0,VALID,92.8664,VALID,0,VALID,24.9319,VALID,108,VALID,0.247656,
2008-05-12, 00:44:04,VALID,1003.44,VALID,0,VALID,92.813,VALID,0,VALID,24.9319,VALID,108,VALID,0.382813,
2008-05-12, 00:45:04,VALID,1003.39,VALID,0,VALID,92.7062,VALID,0,VALID,24.9125,VALID,108,VALID,0,
2008-05-12, 00:46:04,VALID,1003.38,VALID,0,VALID,92.6985,VALID,0,VALID,24.9125,VALID,108,VALID,0.230078,
2008-05-12, 00:47:04,VALID,1003.38,VALID,0,VALID,92.546,VALID,0,VALID,24.893,VALID,108,VALID,0.400391,
2008-05-12, 00:48:04,VALID,1003.37,VALID,0,VALID,92.5536,VALID,0,VALID,24.854,VALID,108,VALID,0.273047,
2008-05-12, 00:49:04,VALID,1003.37,VALID,0,VALID,92.5154,VALID,0,VALID,24.7956,VALID,108,VALID,0.232812,
2008-05-12, 00:50:04,VALID,1003.34,VALID,0,VALID,92.9579,VALID,0,VALID,24.7975,VALID,108,VALID,0.208594,
2008-05-12, 00:51:04,VALID,1003.33,VALID,0,VALID,93.1334,VALID,0,VALID,24.817,VALID,108,VALID,0.170703,
2008-05-12, 00:52:04,VALID,1003.31,VALID,0,VALID,93.1791,VALID,0,VALID,24.7761,VALID,108,VALID,0.377344,
2008-05-12, 00:53:04,VALID,1003.29,VALID,0,VALID,92.9961,VALID,0,VALID,24.7567,VALID,108,VALID,0.130078,
2008-05-12, 00:54:04,VALID,1003.26,VALID,0,VALID,92.8664,VALID,0,VALID,24.7372,VALID,108,VALID,0.294141,
2008-05-12, 00:55:04,VALID,1003.26,VALID,0,VALID,92.7748,VALID,0,VALID,24.6593,VALID,108,VALID,0.24375,
2008-05-12, 00:56:04,VALID,1003.26,VALID,0,VALID,93.0342,VALID,0,VALID,24.6204,VALID,93,VALID,0.467187,
2008-05-12, 00:57:04,VALID,1003.25,VALID,0,VALID,93.0189,VALID,0,VALID,24.562,VALID,52,VALID,0.310156,
2008-05-12, 00:58:04,VALID,1003.21,VALID,0,VALID,93.0189,VALID,0,VALID,24.5249,VALID,52,VALID,0.491797,
2008-05-12, 00:59:04,VALID,1003.25,VALID,0,VALID,93.5758,VALID,0,VALID,24.5035,VALID,52,VALID,0.349609,
2008-05-12, 01:00:04,VALID,1003.21,VALID,0,VALID,93.9573,VALID,0,VALID,24.523,VALID,56,VALID,0.441016,
2008-05-12, 01:01:04,VALID,1003.21,VALID,0,VALID,94.1099,VALID,0,VALID,24.6009,VALID,54,VALID,0.521875,
2008-05-12, 01:02:04,VALID,1003.16,VALID,0,VALID,93.6445,VALID,0,VALID,24.5425,VALID,25,VALID,0.441797,
2008-05-12, 01:03:04,VALID,1003.17,VALID,0,VALID,93.7513,VALID,0,VALID,24.523,VALID,25,VALID,0.358594,
2008-05-12, 01:04:04,VALID,1003.17,VALID,0,VALID,93.8581,VALID,0,VALID,24.4841,VALID,24,VALID,0.449219,
2008-05-12, 01:05:04,VALID,1003.17,VALID,0,VALID,93.9039,VALID,0,VALID,24.4859,VALID,22,VALID,0.441797,
2008-05-12, 01:06:04,VALID,1003.19,VALID,0,VALID,93.942,VALID,0,VALID,24.4257,VALID,22,VALID,0.147266,
2008-05-12, 01:07:04,VALID,1003.16,VALID,0,VALID,93.9344,VALID,0,VALID,24.3867,VALID,22,VALID,0.217578,
2008-05-12, 01:08:04,VALID,1003.13,VALID,0,VALID,94.0488,VALID,0,VALID,24.3478,VALID,22,VALID,0,
2008-05-12, 01:09:04,VALID,1003.15,VALID,0,VALID,94.1099,VALID,0,VALID,24.3283,VALID,22,VALID,0,
2008-05-12, 01:10:04,VALID,1003.15,VALID,0,VALID,94.3387,VALID,0,VALID,24.3478,VALID,22,VALID,0.141797,
2008-05-12, 01:11:04,VALID,1003.18,VALID,0,VALID,94.3921,VALID,0,VALID,24.3283,VALID,22,VALID,0.350391,
2008-05-12, 01:12:04,VALID,1003.17,VALID,0,VALID,94.6591,VALID,0,VALID,24.3673,VALID,22,VALID,0.517969,
2008-05-12, 01:13:04,VALID,1003.16,VALID,0,VALID,94.9643,VALID,0,VALID,24.4451,VALID,53,VALID,0.428125,
2008-05-12, 01:14:04,VALID,1003.16,VALID,0,VALID,94.8575,VALID,0,VALID,24.4646,VALID,61,VALID,0.214453,
2008-05-12, 01:15:04,VALID,1003.21,VALID,0,VALID,94.7812,VALID,0,VALID,24.4841,VALID,62,VALID,0.296875,
2008-05-12, 01:16:04,VALID,1003.19,VALID,0,VALID,94.8804,VALID,0,VALID,24.523,VALID,69,VALID,0.408203,
2008-05-12, 01:17:04,VALID,1003.2,VALID,0,VALID,94.9109,VALID,0,VALID,24.5638,VALID,69,VALID,0.29375,
2008-05-12, 01:18:04,VALID,1003.23,VALID,0,VALID,95.0177,VALID,0,VALID,24.6204,VALID,80,VALID,0.616406,
2008-05-12, 01:19:04,VALID,1003.22,VALID,0,VALID,94.9796,VALID,0,VALID,24.6788,VALID,78,VALID,0.0546875,
2008-05-12, 01:20:04,VALID,1003.26,VALID,0,VALID,94.7965,VALID,0,VALID,24.6983,VALID,78,VALID,0.251172,
2008-05-12, 01:21:04,VALID,1003.28,VALID,0,VALID,94.8575,VALID,0,VALID,24.7761,VALID,91,VALID,0.28125,
2008-05-12, 01:22:04,VALID,1003.27,VALID,0,VALID,94.7507,VALID,0,VALID,24.8346,VALID,94,VALID,0.469922,
2008-05-12, 01:23:04,VALID,1003.34,VALID,0,VALID,94.5371,VALID,0,VALID,24.8949,VALID,94,VALID,0.0835937,
2008-05-12, 01:24:04,VALID,1003.34,VALID,0,VALID,94.415,VALID,0,VALID,24.9319,VALID,94,VALID,0.390234,
2008-05-12, 01:25:04,VALID,1003.36,VALID,0,VALID,94.2243,VALID,0,VALID,24.9709,VALID,94,VALID,0.270312,
2008-05-12, 01:26:04,VALID,1003.37,VALID,0,VALID,94.0488,VALID,0,VALID,25.0098,VALID,94,VALID,0.207813,
2008-05-12, 01:27:04,VALID,1003.38,VALID,0,VALID,93.8276,VALID,0,VALID,25.0312,VALID,94,VALID,0.0171875,
2008-05-12, 01:28:04,VALID,1003.36,VALID,0,VALID,93.4309,VALID,0,VALID,24.9904,VALID,90,VALID,0.423047,
2008-05-12, 01:29:04,VALID,1003.31,VALID,0,VALID,93.1944,VALID,0,VALID,24.9125,VALID,72,VALID,0.308203,
2008-05-12, 01:30:04,VALID,1003.32,VALID,0,VALID,93.2249,VALID,0,VALID,24.8735,VALID,72,VALID,0.333984,
2008-05-12, 01:31:04,VALID,1003.29,VALID,0,VALID,93.4843,VALID,0,VALID,24.854,VALID,72,VALID,0.1125,
2008-05-12, 01:32:04,VALID,1003.29,VALID,0,VALID,93.5758,VALID,0,VALID,24.8346,VALID,72,VALID,0.272266,
2008-05-12, 01:33:04,VALID,1003.33,VALID,0,VALID,93.5224,VALID,0,VALID,24.8151,VALID,72,VALID,0.00117188,
2008-05-12, 01:34:04,VALID,1003.32,VALID,0,VALID,93.6369,VALID,0,VALID,24.7956,VALID,72,VALID,0.333594,
2008-05-12, 01:35:04,VALID,1003.32,VALID,0,VALID,93.7132,VALID,0,VALID,24.7761,VALID,72,VALID,0.213281,
2008-05-12, 01:36:04,VALID,1003.28,VALID,0,VALID,93.7132,VALID,0,VALID,24.7372,VALID,72,VALID,0.289453,
2008-05-12, 01:37:04,VALID,1003.28,VALID,0,VALID,93.7361,VALID,0,VALID,24.6788,VALID,71,VALID,0.430859,
2008-05-12, 01:38:04,VALID,1003.26,VALID,0,VALID,93.7742,VALID,0,VALID,24.6593,VALID,71,VALID,0.330469,
2008-05-12, 01:39:04,VALID,1003.24,VALID,0,VALID,93.82,VALID,0,VALID,24.6204,VALID,71,VALID,0.0339844,
2008-05-12, 01:40:04,VALID,1003.22,VALID,0,VALID,93.9725,VALID,0,VALID,24.5601,VALID,71,VALID,0,
2008-05-12, 01:41:04,VALID,1003.2,VALID,0,VALID,94.0641,VALID,0,VALID,24.5814,VALID,71,VALID,0,
2008-05-12, 01:42:04,VALID,1003.18,VALID,0,VALID,94.1556,VALID,0,VALID,24.562,VALID,71,VALID,0.332812,
2008-05-12, 01:43:04,VALID,1003.16,VALID,0,VALID,94.2167,VALID,0,VALID,24.5425,VALID,61,VALID,0.502734,
2008-05-12, 01:44:04,VALID,1003.11,VALID,0,VALID,94.3082,VALID,0,VALID,24.523,VALID,39,VALID,0.413281,
2008-05-12, 01:45:04,VALID,1003.09,VALID,0,VALID,94.2319,VALID,0,VALID,24.4841,VALID,39,VALID,0.46875,
2008-05-12, 01:46:04,VALID,1003.07,VALID,0,VALID,94.2319,VALID,0,VALID,24.4433,VALID,39,VALID,0.407422,
2008-05-12, 01:47:04,VALID,1003.05,VALID,0,VALID,94.2853,VALID,0,VALID,24.4257,VALID,39,VALID,0.178125,
2008-05-12, 01:48:04,VALID,1003.05,VALID,0,VALID,94.4532,VALID,0,VALID,24.4043,VALID,39,VALID,0.146094,
2008-05-12, 01:49:04,VALID,1003.01,VALID,0,VALID,94.5523,VALID,0,VALID,24.3867,VALID,39,VALID,0.349609,
2008-05-12, 01:50:04,VALID,1002.97,VALID,0,VALID,94.6744,VALID,0,VALID,24.3867,VALID,39,VALID,0.0277344,
2008-05-12, 01:51:04,VALID,1002.95,VALID,0,VALID,94.8346,VALID,0,VALID,24.4043,VALID,39,VALID,0.148047,
2008-05-12, 01:52:04,VALID,1002.9,VALID,0,VALID,94.8956,VALID,0,VALID,24.4257,VALID,39,VALID,0.195313,
2008-05-12, 01:53:04,VALID,1002.89,VALID,0,VALID,94.7202,VALID,0,VALID,24.408,VALID,39,VALID,0.483984,
2008-05-12, 01:54:04,VALID,1002.87,VALID,0,VALID,94.7278,VALID,0,VALID,24.3673,VALID,39,VALID,0,
2008-05-12, 01:55:04,VALID,1002.85,VALID,0,VALID,94.8651,VALID,0,VALID,24.3673,VALID,39,VALID,0,
2008-05-12, 01:56:04,VALID,1002.85,VALID,0,VALID,94.8728,VALID,0,VALID,24.3673,VALID,39,VALID,0,
2008-05-12, 01:57:04,VALID,1002.87,VALID,0,VALID,94.8651,VALID,0,VALID,24.3673,VALID,39,VALID,0.180859,
2008-05-12, 01:58:04,VALID,1002.88,VALID,0,VALID,94.9109,VALID,0,VALID,24.3478,VALID,39,VALID,0.0046875,
2008-05-12, 01:59:04,VALID,1002.83,VALID,0,VALID,95.0101,VALID,0,VALID,24.3673,VALID,39,VALID,0.00742187,
2008-05-12, 02:00:04,VALID,1002.83,VALID,0,VALID,94.8804,VALID,0,VALID,24.3478,VALID,39,VALID,0.274609,
2008-05-12, 02:01:04,VALID,1002.81,VALID,0,VALID,94.9185,VALID,0,VALID,24.3088,VALID,39,VALID,0.283203,
2008-05-12, 02:02:04,VALID,1002.79,VALID,0,VALID,94.8422,VALID,0,VALID,24.2894,VALID,39,VALID,0.545313,
2008-05-12, 02:03:04,VALID,1002.76,VALID,0,VALID,94.9262,VALID,0,VALID,24.2486,VALID,39,VALID,0.383203,
2008-05-12, 02:04:04,VALID,1002.73,VALID,0,VALID,95.0482,VALID,0,VALID,24.2717,VALID,39,VALID,0.409766,
2008-05-12, 02:05:04,VALID,1002.73,VALID,0,VALID,95.1245,VALID,0,VALID,24.2894,VALID,39,VALID,0.298047,
2008-05-12, 02:06:04,VALID,1002.75,VALID,0,VALID,95.2313,VALID,0,VALID,24.2894,VALID,39,VALID,0.201172,
2008-05-12, 02:07:04,VALID,1002.72,VALID,0,VALID,95.2466,VALID,0,VALID,24.3283,VALID,39,VALID,0,
2008-05-12, 02:08:04,VALID,1002.73,VALID,0,VALID,95.2542,VALID,0,VALID,24.3088,VALID,39,VALID,0,
2008-05-12, 02:09:04,VALID,1002.75,VALID,0,VALID,95.3534,VALID,0,VALID,24.3283,VALID,39,VALID,0,
2008-05-12, 02:10:04,VALID,1002.75,VALID,0,VALID,95.4602,VALID,0,VALID,24.3673,VALID,39,VALID,0.303906,
2008-05-12, 02:11:04,VALID,1002.79,VALID,0,VALID,95.3686,VALID,0,VALID,24.3673,VALID,39,VALID,0.356641,
2008-05-12, 02:12:04,VALID,1002.78,VALID,0,VALID,95.1627,VALID,0,VALID,24.3496,VALID,32,VALID,0.492969,
2008-05-12, 02:13:04,VALID,1002.8,VALID,0,VALID,95.0787,VALID,0,VALID,24.2699,VALID,32,VALID,0.513672,
2008-05-12, 02:14:04,VALID,1002.81,VALID,0,VALID,95.1016,VALID,0.100563,VALID,24.2699,VALID,32,VALID,0.233594,
2008-05-12, 02:15:04,VALID,1002.8,VALID,0,VALID,95.1093,VALID,0,VALID,24.231,VALID,32,VALID,0.164844,
2008-05-12, 02:16:04,VALID,1002.8,VALID,0,VALID,95.1321,VALID,0,VALID,24.192,VALID,32,VALID,0,
2008-05-12, 02:17:04,VALID,1002.8,VALID,0,VALID,95.2695,VALID,0,VALID,24.2115,VALID,62,VALID,0.392969,
2008-05-12, 02:18:04,VALID,1002.8,VALID,0,VALID,95.3839,VALID,0,VALID,24.2504,VALID,62,VALID,0.416406,
2008-05-12, 02:19:04,VALID,1002.83,VALID,0,VALID,95.3839,VALID,0,VALID,24.2291,VALID,62,VALID,0.450781,
2008-05-12, 02:20:04,VALID,1002.81,VALID,0,VALID,95.4297,VALID,0,VALID,24.2699,VALID,61,VALID,0.369922,
2008-05-12, 02:21:04,VALID,1002.8,VALID,0,VALID,95.422,VALID,0,VALID,24.2504,VALID,61,VALID,0.387109,
2008-05-12, 02:22:04,VALID,1002.82,VALID,0,VALID,95.4449,VALID,0,VALID,24.2699,VALID,61,VALID,0.326562,
2008-05-12, 02:23:04,VALID,1002.84,VALID,0,VALID,95.5288,VALID,0,VALID,24.2699,VALID,47,VALID,0.582031,
2008-05-12, 02:24:04,VALID,1002.84,VALID,0,VALID,95.5288,VALID,0,VALID,24.2894,VALID,45,VALID,0.506641,
2008-05-12, 02:25:04,VALID,1002.84,VALID,0,VALID,95.4602,VALID,0,VALID,24.2699,VALID,43,VALID,0.259375,
2008-05-12, 02:26:04,VALID,1002.84,VALID,0,VALID,95.4754,VALID,0,VALID,24.2717,VALID,38,VALID,0.229687,
2008-05-12, 02:27:04,VALID,1002.87,VALID,0,VALID,95.3915,VALID,0,VALID,24.2097,VALID,38,VALID,0.1875,
2008-05-12, 02:28:04,VALID,1002.84,VALID,0,VALID,95.4983,VALID,0,VALID,24.2504,VALID,38,VALID,0.237891,
2008-05-12, 02:29:04,VALID,1002.84,VALID,0,VALID,95.506,VALID,0,VALID,24.2504,VALID,38,VALID,0.228906,
2008-05-12, 02:30:04,VALID,1002.86,VALID,0,VALID,95.4983,VALID,0,VALID,24.231,VALID,38,VALID,0,
2008-05-12, 02:31:04,VALID,1002.9,VALID,0,VALID,95.5441,VALID,0,VALID,24.2504,VALID,38,VALID,0,
2008-05-12, 02:32:04,VALID,1002.91,VALID,0,VALID,95.6662,VALID,0,VALID,24.2894,VALID,37,VALID,0.339453,
2008-05-12, 02:33:04,VALID,1002.93,VALID,0,VALID,95.7119,VALID,0,VALID,24.3265,VALID,36,VALID,0.376172,
2008-05-12, 02:34:04,VALID,1002.92,VALID,0,VALID,95.7043,VALID,0,VALID,24.3673,VALID,35,VALID,0.36875,
2008-05-12, 02:35:04,VALID,1002.93,VALID,0,VALID,95.773,VALID,0,VALID,24.3867,VALID,27,VALID,0.217578,
2008-05-12, 02:36:04,VALID,1002.96,VALID,0,VALID,95.8187,VALID,0.100563,VALID,24.4238,VALID,27,VALID,0.285547,
2008-05-12, 02:37:04,VALID,1002.94,VALID,0,VALID,95.8645,VALID,0,VALID,24.523,VALID,94,VALID,0.170312,
2008-05-12, 02:38:04,VALID,1002.92,VALID,0,VALID,95.8493,VALID,0.100563,VALID,24.5601,VALID,82,VALID,0.230859,
2008-05-12, 02:39:04,VALID,1002.96,VALID,0,VALID,95.9103,VALID,0.100563,VALID,24.6574,VALID,36,VALID,0.520312,
2008-05-12, 02:40:04,VALID,1002.95,VALID,0,VALID,95.8798,VALID,0,VALID,24.7372,VALID,79,VALID,0.529297,
2008-05-12, 02:41:04,VALID,1002.95,VALID,0,VALID,95.834,VALID,0,VALID,24.7956,VALID,70,VALID,0.219922,
2008-05-12, 02:42:04,VALID,1002.93,VALID,0,VALID,95.7424,VALID,0,VALID,24.8346,VALID,79,VALID,0.214062,
2008-05-12, 02:43:04,VALID,1002.94,VALID,0,VALID,95.6356,VALID,0,VALID,24.854,VALID,77,VALID,0.382031,
2008-05-12, 02:44:04,VALID,1002.97,VALID,0,VALID,95.567,VALID,0,VALID,24.893,VALID,70,VALID,0.0683594,
2008-05-12, 02:45:04,VALID,1002.94,VALID,0,VALID,95.4678,VALID,0,VALID,24.893,VALID,70,VALID,0,
2008-05-12, 02:46:04,VALID,1002.93,VALID,0,VALID,95.4068,VALID,0,VALID,24.9709,VALID,89,VALID,0.685547,
2008-05-12, 02:47:04,VALID,1002.93,VALID,0,VALID,95.3381,VALID,0,VALID,25.0098,VALID,82,VALID,0.726953,
2008-05-12, 02:48:04,VALID,1002.92,VALID,0,VALID,95.1855,VALID,0,VALID,25.0682,VALID,86,VALID,0.0972656,
2008-05-12, 02:49:04,VALID,1002.92,VALID,0,VALID,95.0101,VALID,0,VALID,25.0877,VALID,86,VALID,0.134766,
2008-05-12, 02:50:04,VALID,1002.9,VALID,0,VALID,94.9185,VALID,0,VALID,25.1072,VALID,81,VALID,0.784375,
2008-05-12, 02:51:04,VALID,1002.87,VALID,0,VALID,94.8117,VALID,0,VALID,25.1461,VALID,88,VALID,0.322656,
2008-05-12, 02:52:04,VALID,1002.84,VALID,0,VALID,94.5981,VALID,0,VALID,25.1442,VALID,88,VALID,0.0566406,
2008-05-12, 02:53:04,VALID,1002.84,VALID,0,VALID,94.3845,VALID,0,VALID,25.1461,VALID,88,VALID,0,
2008-05-12, 02:54:04,VALID,1002.81,VALID,0,VALID,94.209,VALID,0,VALID,25.1053,VALID,88,VALID,0.0234375,
2008-05-12, 02:55:04,VALID,1002.78,VALID,0,VALID,94.1022,VALID,0,VALID,25.1072,VALID,88,VALID,0.00195313,
2008-05-12, 02:56:04,VALID,1002.79,VALID,0,VALID,94.0641,VALID,0,VALID,25.0682,VALID,57,VALID,0.285156,
2008-05-12, 02:57:04,VALID,1002.77,VALID,0,VALID,94.1251,VALID,0,VALID,25.0469,VALID,45,VALID,0.416406,
2008-05-12, 02:58:04,VALID,1002.79,VALID,0,VALID,94.2624,VALID,0,VALID,25.1248,VALID,84,VALID,0.603906,
2008-05-12, 02:59:04,VALID,1002.81,VALID,0,VALID,94.0259,VALID,0,VALID,25.1461,VALID,84,VALID,0.0175781,
2008-05-12, 03:00:04,VALID,1002.8,VALID,0,VALID,94.0031,VALID,0.100563,VALID,25.1461,VALID,99,VALID,0.926953,
2008-05-12, 03:01:04,VALID,1002.82,VALID,0,VALID,93.9497,VALID,0,VALID,25.1656,VALID,74,VALID,0.847656,
2008-05-12, 03:02:04,VALID,1002.83,VALID,0,VALID,93.6903,VALID,0,VALID,25.1851,VALID,93,VALID,0.403516,
2008-05-12, 03:03:04,VALID,1002.83,VALID,0,VALID,93.6521,VALID,0,VALID,25.1656,VALID,93,VALID,0.152344,
2008-05-12, 03:04:04,VALID,1002.83,VALID,0,VALID,93.6826,VALID,0,VALID,25.1656,VALID,93,VALID,0.473047,
2008-05-12, 03:05:04,VALID,1002.83,VALID,0,VALID,93.6521,VALID,0,VALID,25.1851,VALID,93,VALID,0.237109,
2008-05-12, 03:06:04,VALID,1002.8,VALID,0,VALID,93.614,VALID,0,VALID,25.1851,VALID,93,VALID,0.173047,
2008-05-12, 03:07:04,VALID,1002.79,VALID,0,VALID,93.6826,VALID,0,VALID,25.2046,VALID,93,VALID,0.473828,
2008-05-12, 03:08:04,VALID,1002.81,VALID,0,VALID,93.553,VALID,0,VALID,25.224,VALID,93,VALID,0.216797,
2008-05-12, 03:09:04,VALID,1002.82,VALID,0,VALID,93.469,VALID,0,VALID,25.224,VALID,81,VALID,0.598437,
2008-05-12, 03:10:05,VALID,1002.82,VALID,0,VALID,93.4385,VALID,0,VALID,25.224,VALID,75,VALID,0.276172,
2008-05-12, 03:11:05,VALID,1002.83,VALID,0,VALID,93.3622,VALID,0,VALID,25.1832,VALID,57,VALID,0.396094,
2008-05-12, 03:12:05,VALID,1002.82,VALID,0,VALID,93.1257,VALID,0.100563,VALID,25.1637,VALID,57,VALID,0.303125,
2008-05-12, 03:13:05,VALID,1002.84,VALID,0,VALID,92.9426,VALID,0,VALID,25.1675,VALID,57,VALID,0.284766,
2008-05-12, 03:14:05,VALID,1002.82,VALID,0,VALID,92.7596,VALID,0,VALID,25.0274,VALID,57,VALID,0.230859,
2008-05-12, 03:15:05,VALID,1002.79,VALID,0,VALID,92.8816,VALID,0,VALID,24.9709,VALID,57,VALID,0.273438,
2008-05-12, 03:16:05,VALID,1002.77,VALID,0,VALID,93.0266,VALID,0,VALID,24.893,VALID,57,VALID,0.185937,
2008-05-12, 03:17:05,VALID,1002.75,VALID,0,VALID,93.2249,VALID,0,VALID,24.8132,VALID,57,VALID,0.314453,
2008-05-12, 03:18:05,VALID,1002.75,VALID,0,VALID,93.4309,VALID,0,VALID,24.7761,VALID,57,VALID,0.258594,
2008-05-12, 03:19:05,VALID,1002.72,VALID,0,VALID,93.7055,VALID,0.100563,VALID,24.7372,VALID,57,VALID,0.189063,
2008-05-12, 03:20:05,VALID,1002.7,VALID,0,VALID,93.9115,VALID,0,VALID,24.7372,VALID,57,VALID,0.145313,
2008-05-12, 03:21:05,VALID,1002.67,VALID,0,VALID,94.1175,VALID,0,VALID,24.7177,VALID,57,VALID,0.207813,
2008-05-12, 03:22:05,VALID,1002.67,VALID,0,VALID,94.1404,VALID,0,VALID,24.7159,VALID,57,VALID,0.245703,
2008-05-12, 03:23:05,VALID,1002.67,VALID,0,VALID,94.1175,VALID,0,VALID,24.6983,VALID,57,VALID,0.286328,
2008-05-12, 03:24:05,VALID,1002.68,VALID,0,VALID,94.1099,VALID,0.100563,VALID,24.6593,VALID,55,VALID,0.510938,
2008-05-12, 03:25:05,VALID,1002.69,VALID,0,VALID,94.0717,VALID,0,VALID,24.6204,VALID,55,VALID,0.358203,
2008-05-12, 03:26:05,VALID,1002.67,VALID,0,VALID,94.1328,VALID,0,VALID,24.562,VALID,55,VALID,0.378906,
2008-05-12, 03:27:05,VALID,1002.66,VALID,0,VALID,94.1709,VALID,0,VALID,24.523,VALID,55,VALID,0.446094,
2008-05-12, 03:28:05,VALID,1002.68,VALID,0,VALID,94.1404,VALID,0,VALID,24.4841,VALID,52,VALID,0.555859,
2008-05-12, 03:29:05,VALID,1002.72,VALID,0,VALID,94.2396,VALID,0,VALID,24.4238,VALID,52,VALID,0.424219,
2008-05-12, 03:30:05,VALID,1002.69,VALID,0,VALID,94.3235,VALID,0,VALID,24.4062,VALID,43,VALID,0.424219,
2008-05-12, 03:31:05,VALID,1002.74,VALID,0,VALID,94.4074,VALID,0,VALID,24.3673,VALID,41,VALID,0.498047,
2008-05-12, 03:32:05,VALID,1002.75,VALID,0,VALID,94.5295,VALID,0,VALID,24.3459,VALID,28,VALID,0.578516,
2008-05-12, 03:33:05,VALID,1002.75,VALID,0,VALID,94.9414,VALID,0,VALID,24.3867,VALID,26,VALID,0.415234,
2008-05-12, 03:34:05,VALID,1002.75,VALID,0,VALID,94.8194,VALID,0,VALID,24.3867,VALID,26,VALID,0.473437,
2008-05-12, 03:35:05,VALID,1002.74,VALID,0,VALID,94.8346,VALID,0,VALID,24.3441,VALID,17,VALID,0.530078,
2008-05-12, 03:36:05,VALID,1002.72,VALID,0,VALID,95.0558,VALID,0,VALID,24.4062,VALID,17,VALID,0.434375,
2008-05-12, 03:37:05,VALID,1002.74,VALID,0,VALID,94.9567,VALID,0,VALID,24.3867,VALID,17,VALID,0.288281,
2008-05-12, 03:38:05,VALID,1002.73,VALID,0,VALID,95.0787,VALID,0,VALID,24.4257,VALID,18,VALID,0.181641,
2008-05-12, 03:39:05,VALID,1002.75,VALID,0,VALID,95.0711,VALID,0,VALID,24.4451,VALID,18,VALID,0.313672,
2008-05-12, 03:40:05,VALID,1002.74,VALID,0,VALID,95.2008,VALID,0,VALID,24.4859,VALID,18,VALID,0.164453,
2008-05-12, 03:41:05,VALID,1002.72,VALID,0,VALID,95.2466,VALID,0,VALID,24.523,VALID,18,VALID,0.26875,
2008-05-12, 03:42:05,VALID,1002.73,VALID,0,VALID,95.3152,VALID,0,VALID,24.5833,VALID,43,VALID,0.328906,
2008-05-12, 03:43:05,VALID,1002.73,VALID,0,VALID,95.3457,VALID,0,VALID,24.6009,VALID,64,VALID,0.701172,
2008-05-12, 03:44:05,VALID,1002.75,VALID,0,VALID,95.4754,VALID,0,VALID,24.6788,VALID,57,VALID,0.750391,
2008-05-12, 03:45:05,VALID,1002.75,VALID,0,VALID,95.4297,VALID,0,VALID,24.7372,VALID,58,VALID,0.39375,
2008-05-12, 03:46:05,VALID,1002.75,VALID,0,VALID,95.5441,VALID,0,VALID,24.8346,VALID,71,VALID,1.0457,